Location: Clandonald
(53.5720°N, 110.7141°W)
Time: 22:53:54
(UTC+00:00)

Envisat - Pass Details

Date: 25 October 2019
Orbit: 764 x 766 km, 98.1° (Epoch: 20 November)

Event Time Altitude Azimuth Distance (km) Brightness Sun altitude
Rises 01:03:42 0° 160° (SSE) 3,224 6.1 -9.1°
Reaches altitude 10° 01:06:00 10° 160° (SSE) 2,302 5.4 -9.4°
Maximum altitude 01:11:05 84° 73° (ENE) 779 3.0 -10.2°
Drops below altitude 10° 01:16:12 10° 346° (NNW) 2,317 5.6 -10.9°
Sets 01:18:31 0° 346° (NNW) 3,248 6.4 -11.3°
